Flag for U.S.A. Weather past 2 weeks in Bryan – College Station, Texas, U.S.A.

Now
80 °F

Clear.


Feels Like: 84 °F
Forecast: 75 / 95 °F
Wind: 9 mph from Southeast

Location: Easterwood Field

Current Time: Sep 4, 2015 at 11:49:29 PM

Latest Report: Sep 4, 2015 at 10:53 PM


Visibility: 10 mi

Pressure: 29.93 "Hg

Humidity: 79%

Dew point: 73 °F

Location of Bryan – College StationLocation

Historic Weather in Bryan – College Station — Graph

°F

Bryan – College Station temperature yesterday

Maximum temperature yesterday: 91 °F (at 2:53 PM)
Minimum temperature yesterday: 73 °F (at 3:53 AM)
Average temperature yesterday: 81 °F

Past Weeks' High & Low Weather Summary

 TemperatureHumidityPressure
High99 °F (Aug 24, 3:53 PM)94% (Aug 22, 3:53 AM)30.12 "Hg (Aug 22, 3:53 AM)
Low70 °F (Aug 27, 6:53 AM)35% (Aug 24, 3:53 PM)29.83 "Hg (Sep 3, 6:53 PM)
Average82 °F70%29.98 "Hg
* Reported Aug 20 9:53 PM — Sep 4 9:53 PM, Bryan – College Station, Weather by CustomWeather, © 2015

Note: Actual official high and low records may vary slightly from our data, if they occured in-between our weather recording intervals... More about our weather records

Advertising

Bryan – College Station weather history for previous 24 hours

 ConditionsComfort  
Time TempWeatherWind HumidityBarometerVisibility
9:53 PM
Fri, Sep 4
81 °FPassing clouds.9 mph74%29.93 "Hg10 mi
8:53 PM83 °FMostly cloudy.12 mph70%29.91 "Hg10 mi
7:53 PM85 °FMostly cloudy.8 mph70%29.90 "Hg10 mi
6:53 PM86 °FOvercast.10 mph63%29.89 "Hg10 mi
5:53 PM89 °FSunny.17 mph57%29.88 "Hg10 mi
4:53 PM92 °FScattered clouds.15 mph52%29.88 "Hg10 mi
3:53 PM95 °FSunny.9 mph44%29.88 "Hg10 mi
2:53 PM92 °FBroken clouds.3 mph51%29.90 "Hg10 mi
1:53 PM92 °FPartly sunny.7 mph54%29.91 "Hg10 mi
12:53 PM89 °FBroken clouds.No wind59%29.93 "Hg10 mi
12:00 PM85 °FBroken clouds.8 mph65%29.97 "Hg10 mi
10:53 AM84 °FPartly sunny.6 mph70%29.96 "Hg10 mi
9:53 AM82 °FPartly sunny.6 mph77%29.95 "Hg10 mi
8:53 AM80 °FSunny.No wind85%29.95 "Hg10 mi
7:53 AM75 °FPassing clouds.3 mph94%29.94 "Hg10 mi
6:53 AM75 °FClear.3 mph94%29.92 "Hg10 mi
5:53 AM75 °FPassing clouds.3 mph94%29.91 "Hg10 mi
4:53 AM76 °FPassing clouds.No wind91%29.91 "Hg10 mi
4:04 AM75 °FPassing clouds.No wind94%29.92 "Hg10 mi
3:53 AM75 °FPartly cloudy.No wind94%29.90 "Hg10 mi
2:53 AM76 °FClear.3 mph91%29.89 "Hg10 mi
1:53 AM76 °FClear.6 mph91%29.89 "Hg10 mi
12:53 AM78 °FClear.6 mph84%29.88 "Hg10 mi
11:53 PM
Thu, Sep 3
78 °FClear.8 mph84%29.88 "Hg10 mi
Weather by CustomWeather, © 2015

See weather overviewHow to use our weather pages